Date String (YYYY-MM-DD hh:mm:ss) UTC,Instrument flags,Ambient pressure (hPa),Sample flow (lpm),Bypass flow (lpm),Sample temperature (°C),Ambient temperature (°C),ASC tube jacket temperature (°C),LED temperature (°C),Box temperature (°C),Sample RH (%),Span deviation,Mass concentration (μg/m³),Mass concentration (μg/m³),Mass concentration (μg/m³)
DateTimeUTC,F1_M11,P_M11,Q1_M11,Q2_M11,T1_M11,T2_M11,T3_M11,T4_M11,T5_M11,U1_M11,ZSPAN_M11,X0_M11,X2_M11,X1_M11
2022-05-26 10:00:00,,0826.2,5.01,0.00,28.7,27.6,00.0,37.6,30.6,14.7,0000.0,0007.79,0003.04,0002.36
2022-05-26 10:01:00,,0826.3,4.99,0.00,28.7,27.6,00.0,37.6,30.6,14.7,0000.0,0007.79,0003.03,0002.33
2022-05-26 10:02:00,,0826.3,5.01,0.00,28.7,27.7,00.0,37.6,30.6,14.7,0000.0,0007.30,0002.98,0002.32
2022-05-26 10:03:00,,0826.4,4.99,0.00,28.7,27.7,00.0,37.6,30.6,14.7,0000.0,0008.01,0003.01,0002.31
2022-05-26 10:04:00,,0826.4,5.00,0.00,28.7,27.7,00.0,37.6,30.6,14.7,0000.0,0007.59,0002.95,0002.29
2022-05-26 10:05:00,,0826.3,5.01,0.00,28.7,27.7,00.0,37.6,30.6,14.8,0000.0,0007.51,0002.95,0002.29
2022-05-26 10:06:00,,0826.3,5.00,0.00,28.7,27.7,00.0,37.6,30.6,14.7,0000.0,0007.59,0002.97,0002.30
2022-05-26 10:07:00,,0826.3,4.99,0.00,28.7,27.7,00.0,37.6,30.6,14.7,0000.0,0007.80,0003.04,0002.31
2022-05-26 10:08:00,,0826.4,5.00,0.00,28.7,27.7,00.0,37.6,30.6,14.7,0000.0,0007.81,0003.09,0002.32
2022-05-26 10:09:00,,0826.4,5.00,0.00,28.7,27.7,00.0,37.6,30.6,14.7,0000.0,0007.88,0003.16,0002.34
2022-05-26 10:10:00,,0826.4,4.99,0.00,28.7,27.7,00.0,37.7,30.6,14.8,0000.0,0007.99,0003.21,0002.36
2022-05-26 10:11:00,,0826.4,5.01,0.00,28.7,27.7,00.0,37.7,30.6,14.8,0000.0,0008.70,0003.27,0002.38
2022-05-26 10:12:00,,0826.4,5.01,0.00,28.7,27.7,00.0,37.7,30.6,14.7,0000.0,0009.20,0003.29,0002.40
2022-05-26 10:13:00,,0826.4,5.00,0.00,28.7,27.7,00.0,37.7,30.6,14.6,0000.0,0009.21,0003.31,0002.43
2022-05-26 10:14:00,,0826.4,4.98,0.00,28.7,27.6,00.0,37.7,30.6,14.5,0000.0,0008.49,0003.31,0002.43
2022-05-26 10:15:00,,0826.5,5.00,0.00,28.7,27.6,00.0,37.7,30.6,14.4,0000.0,0008.76,0003.34,0002.45
2022-05-26 10:16:00,,0826.5,5.00,0.00,28.7,27.6,00.0,37.7,30.6,14.5,0000.0,0008.84,0003.34,0002.44
2022-05-26 10:17:00,,0826.5,5.00,0.00,28.7,27.6,00.0,37.7,30.6,14.6,0000.0,0008.98,0003.34,0002.44
2022-05-26 10:18:00,,0826.5,5.00,0.00,28.7,27.6,00.0,37.7,30.6,14.5,0000.0,0009.20,0003.32,0002.43
2022-05-26 10:19:00,,0826.5,4.99,0.00,28.7,27.6,00.0,37.7,30.6,14.5,0000.0,0009.22,0003.31,0002.42
2022-05-26 10:20:00,,0826.5,5.01,0.00,28.7,27.6,00.0,37.7,30.6,14.4,0000.0,0009.27,0003.31,0002.40
2022-05-26 10:21:00,,0826.5,5.01,0.00,28.7,27.7,00.0,37.7,30.6,14.4,0000.0,0009.44,0003.27,0002.40
2022-05-26 10:22:00,,0826.5,4.99,0.00,28.7,27.6,00.0,37.7,30.6,14.5,0000.0,0009.16,0003.24,0002.39
2022-05-26 10:23:00,,0826.5,5.00,0.00,28.7,27.6,00.0,37.7,30.6,14.4,0000.0,0009.26,0003.25,0002.38
2022-05-26 10:24:00,,0826.5,5.00,0.00,28.7,27.6,00.0,37.7,30.6,14.4,0000.0,0009.22,0003.24,0002.35
2022-05-26 10:25:00,,0826.5,5.00,0.00,28.7,27.6,00.0,37.7,30.6,14.3,0000.0,0009.34,0003.23,0002.34
2022-05-26 10:26:00,,0826.4,4.99,0.00,28.7,27.6,00.0,37.7,30.6,14.3,0000.0,0009.77,0003.20,0002.32
2022-05-26 10:27:00,,0826.5,4.99,0.00,28.7,27.6,00.0,37.7,30.5,14.3,0000.0,0009.65,0003.20,0002.32
2022-05-26 10:28:00,,0826.5,5.01,0.00,28.7,27.6,00.0,37.7,30.5,14.2,0000.0,0009.60,0003.20,0002.32
2022-05-26 10:29:00,,0826.5,5.00,0.00,28.7,27.5,00.0,37.6,30.5,14.2,0000.0,0008.80,0003.19,0002.33
2022-05-26 10:30:00,,0826.5,5.00,0.00,28.7,27.5,00.0,37.7,30.5,14.1,0000.0,0008.66,0003.17,0002.35
2022-05-26 10:31:00,,0826.5,5.00,0.00,28.7,27.5,00.0,37.7,30.5,14.1,0000.0,0008.47,0003.14,0002.35
2022-05-26 10:32:00,,0826.5,5.01,0.00,28.7,27.5,00.0,37.6,30.5,14.1,0000.0,0008.23,0003.13,0002.36
2022-05-26 10:33:00,,0826.5,5.00,0.00,28.7,27.5,00.0,37.6,30.5,14.1,0000.0,0007.76,0003.12,0002.35
2022-05-26 10:34:00,,0826.5,4.99,0.00,28.7,27.5,00.0,37.6,30.5,14.0,0000.0,0007.63,0003.13,0002.36
2022-05-26 10:35:00,,0826.5,4.99,0.00,28.7,27.5,00.0,37.6,30.5,14.1,0000.0,0007.88,0003.13,0002.36
2022-05-26 10:36:00,,0826.5,5.00,0.00,28.7,27.5,00.0,37.6,30.5,14.2,0000.0,0007.99,0003.17,0002.39
2022-05-26 10:37:00,,0826.5,5.01,0.00,28.6,27.5,00.0,37.6,30.4,14.3,0000.0,0006.92,0003.17,0002.41
2022-05-26 10:38:00,,0826.5,5.00,0.00,28.6,27.4,00.0,37.6,30.4,14.4,0000.0,0006.55,0003.18,0002.43
2022-05-26 10:39:00,,0826.5,4.99,0.00,28.6,27.4,00.0,37.6,30.3,14.4,0000.0,0006.43,0003.15,0002.43
2022-05-26 10:40:00,,0826.6,4.99,0.00,28.5,27.3,00.0,37.6,30.3,14.5,0000.0,0006.48,0003.17,0002.43
2022-05-26 10:41:00,,0826.6,5.00,0.00,28.5,27.3,00.0,37.6,30.3,14.6,0000.0,0006.42,0003.18,0002.45
2022-05-26 10:42:00,,0826.6,5.00,0.00,28.5,27.2,00.0,37.6,30.2,14.6,0000.0,0006.44,0003.20,0002.47
2022-05-26 10:43:00,,0826.7,5.01,0.00,28.5,27.2,00.0,37.5,30.2,14.6,0000.0,0006.59,0003.21,0002.48
2022-05-26 10:44:00,,0826.6,4.99,0.00,28.4,27.2,00.0,37.5,30.2,14.5,0000.0,0006.76,0003.23,0002.49
2022-05-26 10:45:00,,0826.6,5.01,0.00,28.4,27.2,00.0,37.5,30.2,14.5,0000.0,0006.47,0003.21,0002.50
2022-05-26 10:46:00,,0826.6,5.01,0.00,28.4,27.2,00.0,37.5,30.2,14.5,0000.0,0005.25,0003.20,0002.49
2022-05-26 10:47:00,,0826.6,5.01,0.00,28.4,27.2,00.0,37.5,30.2,14.5,0000.0,0006.08,0003.17,0002.50
2022-05-26 10:48:00,,0826.7,5.00,0.00,28.4,27.2,00.0,37.5,30.2,14.5,0000.0,0006.73,0003.17,0002.50
2022-05-26 10:49:00,,0826.7,5.00,0.00,28.4,27.2,00.0,37.5,30.2,14.5,0000.0,0006.85,0003.18,0002.49
2022-05-26 10:50:00,,0826.6,4.99,0.00,28.4,27.2,00.0,37.4,30.2,14.6,0000.0,0006.96,0003.19,0002.50
2022-05-26 10:51:00,,0826.7,5.00,0.00,28.4,27.2,00.0,37.4,30.2,14.5,0000.0,0006.86,0003.17,0002.50
2022-05-26 10:52:00,,0826.7,4.99,0.00,28.4,27.2,00.0,37.4,30.2,14.5,0000.0,0007.29,0003.15,0002.51
2022-05-26 10:53:00,,0826.7,4.99,0.00,28.4,27.2,00.0,37.4,30.2,14.4,0000.0,0007.53,0003.14,0002.49
2022-05-26 10:54:00,,0826.7,5.01,0.00,28.4,27.3,00.0,37.4,30.2,14.4,0000.0,0007.53,0003.12,0002.48
2022-05-26 10:55:00,,0826.7,5.00,0.00,28.4,27.3,00.0,37.4,30.2,14.4,0000.0,0007.72,0003.10,0002.48
2022-05-26 10:56:00,,0826.7,4.99,0.00,28.4,27.3,00.0,37.4,30.2,14.3,0000.0,0008.14,0003.10,0002.47
2022-05-26 10:57:00,,0826.8,5.01,0.00,28.4,27.3,00.0,37.4,30.2,14.4,0000.0,0008.47,0003.14,0002.48
2022-05-26 10:58:00,,0826.8,4.99,0.00,28.4,27.3,00.0,37.4,30.2,14.5,0000.0,0008.18,0003.14,0002.47
2022-05-26 10:59:00,,0826.8,5.00,0.00,28.4,27.3,00.0,37.4,30.2,14.7,0000.0,0007.98,0003.16,0002.47
